Cloud_Cover
0 0 0 0 0 0 0 0 4 96 100 6 86 100 100 36 98 100 100 99 14 7 5 31 62 62 66 19 4 8 90 7 0 5 12 5 24 23 44 70 100 100 82 44 5 45 5 5 5
0 0 0 0 0 0 0 0 0 12 49 69 9 96 100 70 100 100 100 100 51 5 4 5 55 100 100 100 100 100 100 100 60 75 57 15 16 5 68 98 100 95 83 9 95 57 8 5 10
0 0 0 0 0 0 0 0 0 2 20 74 24 7 96 100 100 100 100 100 48 56 57 72 10 100 100 100 100 100 100 40 100 100 100 100 15 5 34 55 100 95 100 5 5 5 5 5 0
0 0 0 0 0 0 0 1 5 4 5 4 100 24 66 100 100 100 82 100 91 100 100 72 17 100 57 7 100 69 100 60 56 5 12 0 0 5 5 9 98 68 62 14 5 5 3 0 0
0 0 0 0 0 0 0 0 5 23 0 0 39 47 5 100 100 100 100 100 100 92 100 100 58 65 23 2 5 3 100 98 100 100 70 12 4 0 5 5 6 5 8 5 4 3 5 0 0
0 0 0 0 0 0 0 0 0 0 0 0 2 20 63 97 98 100 100 100 100 100 100 100 100 86 100 100 85 99 100 84 100 100 61 9 5 0 3 5 3 5 5 4 1 2 5 5 0
0 0 0 0 0 0 0 0 0 0 0 0 4 4 99 96 38 86 100 100 100 99 100 82 57 35 100 38 86 16 56 14 100 82 100 71 4 1 0 5 4 3 1 5 5 3 5 5 4
0 0 0 0 0 0 0 0 0 0 0 0 3 0 64 99 96 6 99 100 100 100 100 100 81 100 100 99 87 5 5 82 100 15 5 6 100 100 5 0 0 3 68 16 6 5 5 5 5
0 0 0 0 0 0 0 0 0 0 0 0 1 0 0 76 100 100 21 72 100 100 100 100 84 100 100 4 96 61 5 5 5 0 1 70 89 22 67 74 4 19 100 25 5 5 5 5 5
0 0 0 0 0 0 0 0 0 0 0 0 2 0 0 96 96 100 100 71 100 100 100 100 100 94 90 11 69 80 17 8 7 83 7 2 15 5 2 10 56 10 55 5 5 5 74 10 8
0 0 0 0 0 0 0 0 0 0 0 0 0 0 0 0 10 100 100 100 99 100 100 100 100 100 35 98 84 99 65 100 96 91 6 0 5 4 13 39 42 48 5 5 53 94 99 10 14
0 0 0 0 0 0 0 0 0 0 0 0 2 4 0 0 0 79 100 100 100 65 95 100 100 100 78 97 100 77 22 70 44 5 5 2 4 5 3 25 44 6 5 8 100 90 70 33 5
0 0 0 0 0 0 0 0 0 0 0 0 0 0 0 0 0 13 71 94 100 100 98 100 100 100 100 100 100 52 21 14 5 5 3 5 0 11 8 5 19 5 4 49 100 97 46 21 9
0 0 5 5 0 0 0 0 0 0 0 0 0 0 0 5 0 0 12 72 81 100 100 100 100 100 100 93 90 97 100 100 100 7 5 4 6 5 5 5 5 5 5 19 45 100 100 100 100
0 0 5 2 5 0 0 0 0 0 0 0 0 0 0 3 0 0 10 32 47 100 100 100 100 100 100 98 87 97 100 100 100 100 100 5 5 68 100 99 20 47 58 92 100 98 99 100 99
0 0 0 0 4 3 0 0 0 0 0 0 0 0 0 0 12 10 71 99 100 100 100 100 100 100 100 100 100 100 100 100 98 59 29 5 5 24 8 17 42 23 100 100 97 79 99 97 78
9 2 1 0 0 0 0 0 0 0 0 0 0 0 0 5 1 79 95 100 100 100 100 85 100 100 100 100 100 100 100 100 100 30 5 0 48 36 5 12 73 96 60 96 100 97 45 17 45
100 94 5 20 0 0 0 0 1 0 0 0 0 0 0 5 5 64 76 100 100 100 46 77 97 94 100 100 100 100 100 100 10 14 10 70 8 5 9 27 71 24 98 84 65 92 90 63 100
100 100 100 100 47 0 0 4 0 0 0 0 0 0 0 4 22 79 100 100 100 100 100 95 36 78 100 100 100 100 100 80 12 81 73 47 100 100 100 100 5 4 20 100 97 100 78 100 100
100 100 45 100 100 23 3 0 0 0 0 0 0 0 0 0 11 98 45 100 100 100 92 22 7 100 100 100 100 100 100 90 88 93 100 100 100 99 78 95 19 33 21 91 99 94 100 100 100
100 100 100 100 84 57 90 8 0 0 0 0 0 0 0 0 7 20 63 100 100 91 13 5 6 88 100 100 100 100 100 100 100 100 100 100 100 100 100 90 72 93 46 97 100 100 100 100 100
100 100 53 91 83 5 0 1 0 0 0 0 0 0 0 0 5 8 45 94 96 30 13 5 31 97 87 16 85 100 51 100 100 100 100 100 100 100 100 100 92 68 71 74 95 11 8 100 100
100 95 87 5 5 64 4 0 0 0 0 0 0 0 0 0 3 93 93 100 100 100 80 7 70 5 5 5 5 9 5 28 100 100 100 100 100 100 100 100 100 100 100 100 100 100 99 97 79
100 50 5 5 5 4 11 2 0 0 0 0 0 0 2 0 4 100 99 100 100 100 100 98 5 23 40 17 98 55 100 100 36 62 93 96 86 94 100 100 100 95 100 100 100 100 100 100 100
100 100 41 35 63 2 0 4 0 4 0 0 0 0 4 5 4 71 59 79 100 100 59 100 29 98 95 94 94 86 93 100 100 31 30 65 19 20 10 32 79 100 100 95 100 70 42 9 3
100 82 100 100 80 0 4 0 46 2 2 0 0 0 4 5 1 0 93 37 36 28 52 62 98 100 98 95 98 94 99 100 100 100 40 5 0 2 0 0 0 0 0 0 0 0 0 1 0
100 100 100 99 85 100 84 3 98 0 1 0 0 0 0 5 6 8 40 7 100 100 100 5 84 96 94 100 100 100 100 100 99 91 2 0 0 0 0 0 0 0 0 0 0 0 0 0 0
97 98 100 99 21 100 100 15 100 0 2 0 2 1 1 21 60 80 74 99 100 100 100 92 64 51 78 27 71 96 78 24 9 0 0 0 0 0 0 0 0 0 0 0 0 0 0 3 1
86 88 18 94 100 100 100 100 100 2 0 0 2 4 4 89 1 2 100 100 100 100 100 16 33 9 6 0 0 0 0 1 0 0 0 0 0 0 0 0 0 0 0 0 0 0 0 0 1
97 98 100 100 34 4 82 100 100 4 2 0 0 0 79 16 3 83 100 100 100 100 100 23 0 29 4 0 3 4 1 0 0 0 0 0 0 0 0 0 0 0 0 0 0 0 0 0 0